{"data":{"norad_id":62136,"epoch":"2026-09-21T20:58:10.245216Z","epoch_age_seconds":62724,"freshness":"FRESH","line1":"1 62136U 24222Y   26264.87372969  .00012324  00000+0  45650-3 0  9995","line2":"2 62136  43.0016 108.1624 0001658 283.0469  77.0198 15.27589385102804","mean_motion":15.27589385,"eccentricity":0.0001658,"inclination_deg":43.0016,"raan_deg":108.1624,"arg_perigee_deg":283.0469,"mean_anomaly_deg":77.0198,"bstar":0.0004565,"rev_number":10280,"period_min":94.266169570169,"perigee_km":481.88341412187,"apogee_km":484.15857411272,"semimajor_km":6861.1579941173,"source":"CELESTRAK","updated_at":"2026-09-22T09:00:49.528484Z"}}